When you browse on this site, cookies collect data to enhance your experience and personalize the content and advertising you see.
Visit our Privacy Policy to learn more. By continuing to use the site, you agree to this use of cookies and data.
  • în România
  • Lista ţărilor
  • Pe 7 zile
  • Temperatura apei
  • Meteo pe hartă
  • Widget-uri
  • user-avatar
    Intrare

    Meteo pe oră la Oksford

    Astăzi, 29 Mai, Vineri

    Timp Temperatura Precipitaţii Vânt Presiune Umiditate
    00:00 +9°C° 0 mm 2 m/s 767 mmHg 69%
    01:00 +8°C° 0 mm 2 m/s 767 mmHg 72%
    02:00 +8°C° 0 mm 2 m/s 767 mmHg 74%
    03:00 +8°C° 0 mm 2 m/s 766 mmHg 77%
    04:00 +9°C° 0 mm 3 m/s 766 mmHg 78%
    05:00 +10°C° 0 mm 3 m/s 766 mmHg 78%
    06:00 +11°C° 0 mm 3 m/s 766 mmHg 79%
    07:00 +13°C° 0 mm 3 m/s 766 mmHg 74%
    08:00 +16°C° 0 mm 3 m/s 766 mmHg 70%
    09:00 +18°C° 0 mm 3 m/s 766 mmHg 65%
    10:00 +19°C° 0 mm 3 m/s 765 mmHg 61%
    11:00 +20°C° 0 mm 4 m/s 765 mmHg 58%
    12:00 +21°C° 0 mm 4 m/s 765 mmHg 55%
    13:00 +21°C° 0 mm 4 m/s 765 mmHg 55%
    14:00 +21°C° 0 mm 4 m/s 764 mmHg 56%
    15:00 +21°C° 0 mm 4 m/s 764 mmHg 56%
    16:00 +20°C° 0 mm 4 m/s 764 mmHg 60%
    17:00 +19°C° 0 mm 4 m/s 763 mmHg 65%
    18:00 +18°C° 0 mm 4 m/s 763 mmHg 69%
    19:00 +16°C° 0 mm 3 m/s 763 mmHg 69%
    20:00 +13°C° 0 mm 3 m/s 763 mmHg 69%
    21:00 +11°C° 0 mm 3 m/s 763 mmHg 69%
    22:00 +10°C° 0 mm 3 m/s 763 mmHg 70%
    23:00 +9°C° 0 mm 3 m/s 763 mmHg 70%

    Mâine, 30 Mai, Sâmbătă

    Timp Temperatura Precipitaţii Vânt Presiune Umiditate
    00:00 +8°C° 0 mm 3 m/s 763 mmHg 70%
    01:00 +7°C° 0 mm 3 m/s 763 mmHg 76%
    02:00 +7°C° 0 mm 2 m/s 763 mmHg 81%
    03:00 +6°C° 0 mm 2 m/s 763 mmHg 87%
    04:00 +7°C° 0 mm 2 m/s 763 mmHg 86%
    05:00 +8°C° 0 mm 3 m/s 763 mmHg 86%
    06:00 +9°C° 0 mm 3 m/s 763 mmHg 85%
    07:00 +12°C° 0 mm 3 m/s 763 mmHg 81%
    08:00 +14°C° 0 mm 3 m/s 763 mmHg 77%
    09:00 +18°C° 0 mm 3 m/s 763 mmHg 73%
    10:00 +19°C° 0 mm 4 m/s 763 mmHg 69%
    11:00 +20°C° 0 mm 4 m/s 763 mmHg 64%
    12:00 +21°C° 0 mm 4 m/s 762 mmHg 60%
    13:00 +21°C° 0 mm 4 m/s 762 mmHg 60%
    14:00 +21°C° 0 mm 4 m/s 762 mmHg 60%
    15:00 +21°C° 0 mm 5 m/s 762 mmHg 60%
    16:00 +21°C° 0 mm 4 m/s 762 mmHg 64%
    17:00 +20°C° 0 mm 4 m/s 761 mmHg 68%
    18:00 +19°C° 0 mm 4 m/s 761 mmHg 72%
    19:00 +17°C° 0 mm 4 m/s 762 mmHg 74%
    20:00 +14°C° 0 mm 4 m/s 762 mmHg 77%
    21:00 +12°C° 0 mm 4 m/s 762 mmHg 80%
    22:00 +11°C° 0 mm 3 m/s 762 mmHg 84%
    23:00 +10°C° 0 mm 3 m/s 762 mmHg 88%

    Poimâine, 31 Mai, Duminică

    Timp Temperatura Precipitaţii Vânt Presiune Umiditate
    00:00 +9°C° 0 mm 3 m/s 762 mmHg 91%
    01:00 +9°C° 0 mm 3 m/s 762 mmHg 92%
    02:00 +9°C° 0 mm 3 m/s 762 mmHg 94%
    03:00 +8°C° 0 mm 3 m/s 763 mmHg 95%
    04:00 +10°C° 0 mm 3 m/s 763 mmHg 92%
    05:00 +11°C° 0 mm 4 m/s 763 mmHg 89%
    06:00 +12°C° 0 mm 4 m/s 763 mmHg 87%
    07:00 +14°C° 0 mm 4 m/s 763 mmHg 80%
    08:00 +16°C° 0 mm 5 m/s 763 mmHg 73%
    09:00 +19°C° 0 mm 5 m/s 763 mmHg 66%
    10:00 +20°C° 0 mm 5 m/s 763 mmHg 62%
    11:00 +20°C° 0 mm 5 m/s 763 mmHg 59%
    12:00 +21°C° 0 mm 5 m/s 763 mmHg 56%
    13:00 +21°C° 0 mm 5 m/s 763 mmHg 57%
    14:00 +21°C° 0 mm 5 m/s 763 mmHg 57%
    15:00 +21°C° 0 mm 5 m/s 763 mmHg 58%
    16:00 +21°C° 0 mm 4 m/s 763 mmHg 63%
    17:00 +20°C° 0 mm 4 m/s 763 mmHg 67%
    18:00 +19°C° 0 mm 4 m/s 763 mmHg 72%
    19:00 +17°C° 0 mm 4 m/s 763 mmHg 77%
    20:00 +15°C° 0 mm 4 m/s 763 mmHg 83%
    21:00 +13°C° 0 mm 4 m/s 763 mmHg 88%
    22:00 +12°C° 0 mm 4 m/s 764 mmHg 90%
    23:00 +11°C° 0 mm 3 m/s 764 mmHg 92%

    1 Iunie, Luni

    Timp Temperatura Precipitaţii Vânt Presiune Umiditate
    00:00 +10°C° 0 mm 3 m/s 764 mmHg 93%
    01:00 +9°C° 0 mm 3 m/s 763 mmHg 93%
    02:00 +8°C° 0 mm 3 m/s 763 mmHg 93%
    03:00 +8°C° 0 mm 3 m/s 763 mmHg 92%
    04:00 +8°C° 0 mm 3 m/s 763 mmHg 90%
    05:00 +8°C° 0 mm 4 m/s 763 mmHg 88%
    06:00 +10°C° 0 mm 4 m/s 763 mmHg 86%
    07:00 +12°C° 0 mm 4 m/s 763 mmHg 81%
    08:00 +14°C° 0 mm 4 m/s 763 mmHg 77%
    09:00 +17°C° 0 mm 4 m/s 763 mmHg 72%
    10:00 +18°C° 0 mm 4 m/s 763 mmHg 70%
    11:00 +19°C° 0 mm 4 m/s 763 mmHg 67%
    12:00 +20°C° 0 mm 4 m/s 763 mmHg 64%
    13:00 +21°C° 0.1 mm 4 m/s 763 mmHg 64%
    14:00 +21°C° 0.1 mm 4 m/s 763 mmHg 64%
    15:00 +21°C° 0.1 mm 5 m/s 762 mmHg 64%
    16:00 +20°C° 0 mm 5 m/s 762 mmHg 66%
    17:00 +19°C° 0 mm 4 m/s 762 mmHg 68%
    18:00 +18°C° 0 mm 4 m/s 762 mmHg 70%
    19:00 +15°C° 0 mm 4 m/s 762 mmHg 75%
    20:00 +13°C° 0 mm 4 m/s 763 mmHg 80%
    21:00 +11°C° 0 mm 4 m/s 763 mmHg 85%
    22:00 +10°C° 0 mm 4 m/s 763 mmHg 88%
    23:00 +9°C° 0 mm 3 m/s 763 mmHg 91%

    2 Iunie, Marţi

    Timp Temperatura Precipitaţii Vânt Presiune Umiditate
    00:00 +8°C° 0 mm 3 m/s 762 mmHg 94%
    01:00 +8°C° 0 mm 3 m/s 762 mmHg 94%
    02:00 +7°C° 0 mm 3 m/s 762 mmHg 95%
    03:00 +7°C° 0 mm 3 m/s 762 mmHg 96%
    04:00 +8°C° 0 mm 3 m/s 762 mmHg 94%
    05:00 +8°C° 0 mm 4 m/s 761 mmHg 91%
    06:00 +10°C° 0 mm 4 m/s 761 mmHg 89%
    07:00 +12°C° 0 mm 4 m/s 761 mmHg 84%
    08:00 +14°C° 0 mm 4 m/s 761 mmHg 79%
    09:00 +16°C° 0 mm 5 m/s 761 mmHg 74%
    10:00 +17°C° 0 mm 5 m/s 761 mmHg 71%
    11:00 +19°C° 0 mm 5 m/s 760 mmHg 69%
    12:00 +20°C° 0 mm 4 m/s 760 mmHg 67%
    13:00 +20°C° 0 mm 4 m/s 760 mmHg 66%
    14:00 +20°C° 0 mm 4 m/s 759 mmHg 66%
    15:00 +20°C° 0 mm 4 m/s 759 mmHg 66%
    16:00 +20°C° 0 mm 4 m/s 759 mmHg 69%
    17:00 +19°C° 0 mm 4 m/s 758 mmHg 72%
    18:00 +18°C° 0 mm 4 m/s 758 mmHg 74%
    19:00 +15°C° 0 mm 4 m/s 758 mmHg 80%
    20:00 +13°C° 0 mm 3 m/s 758 mmHg 86%
    21:00 +11°C° 0 mm 3 m/s 758 mmHg 92%
    22:00 +10°C° 0 mm 3 m/s 758 mmHg 92%
    23:00 +9°C° 0 mm 3 m/s 757 mmHg 93%

    3 Iunie, Miercuri

    Timp Temperatura Precipitaţii Vânt Presiune Umiditate
    00:00 +9°C° 0 mm 3 m/s 757 mmHg 93%
    01:00 +8°C° 0 mm 3 m/s 757 mmHg 94%
    02:00 +8°C° 0 mm 3 m/s 757 mmHg 94%
    03:00 +8°C° 0 mm 3 m/s 756 mmHg 95%
    04:00 +8°C° 0 mm 3 m/s 756 mmHg 92%
    05:00 +8°C° 0 mm 4 m/s 756 mmHg 89%
    06:00 +10°C° 0 mm 4 m/s 756 mmHg 86%
    07:00 +12°C° 0 mm 5 m/s 756 mmHg 82%
    08:00 +13°C° 0 mm 5 m/s 756 mmHg 77%
    09:00 +15°C° 0 mm 5 m/s 756 mmHg 73%
    10:00 +16°C° 0 mm 6 m/s 755 mmHg 70%
    11:00 +17°C° 0 mm 6 m/s 755 mmHg 67%
    12:00 +19°C° 0 mm 6 m/s 755 mmHg 64%
    13:00 +19°C° 0 mm 6 m/s 755 mmHg 64%
    14:00 +19°C° 0 mm 6 m/s 755 mmHg 64%
    15:00 +19°C° 0 mm 6 m/s 754 mmHg 64%
    16:00 +17°C° 0 mm 5 m/s 754 mmHg 66%
    17:00 +17°C° 0 mm 5 m/s 754 mmHg 68%
    18:00 +16°C° 0 mm 5 m/s 754 mmHg 71%
    19:00 +14°C° 0 mm 4 m/s 754 mmHg 78%
    20:00 +12°C° 0 mm 3 m/s 754 mmHg 86%
    21:00 +10°C° 0 mm 3 m/s 754 mmHg 94%
    22:00 +9°C° 0 mm 2 m/s 754 mmHg 94%
    23:00 +8°C° 0 mm 2 m/s 754 mmHg 95%
    Arată mai mult